Time,TemperatureF,DewpointF,PressureIn,WindDirection,WindDirectionDegrees,WindSpeedMPH,WindSpeedGustMPH,Humidity,HourlyPrecipIn,Conditions,Clouds,dailyrainin,SoftwareType,DateUTC
2013-09-16 00:00:00,59.0,57.3,29.74,NE,45,0.0,0.0,94,0.00,FEW,BKN,0.00,WeatherDisplay:10.37,2013-09-15 22:00:00,
2013-09-16 00:05:00,59.0,57.3,29.74,NE,45,0.0,0.0,94,0.00,FEW,BKN,0.00,WeatherDisplay:10.37,2013-09-15 22:05:00,
2013-09-16 00:10:00,59.0,57.3,29.73,South,180,0.0,0.0,94,0.00,FEW,BKN,0.00,WeatherDisplay:10.37,2013-09-15 22:10:00,
2013-09-16 00:15:00,59.0,57.3,29.73,East,90,1.6,1.6,94,0.00,FEW,BKN,0.00,WeatherDisplay:10.37,2013-09-15 22:15:00,
2013-09-16 00:20:00,58.8,57.4,29.73,East,90,1.6,1.6,95,0.00,CLR,BKN,0.00,WeatherDisplay:10.37,2013-09-15 22:20:00,
2013-09-16 00:25:00,58.6,57.2,29.73,East,90,1.6,1.6,95,0.00,CLR,BKN,0.00,WeatherDisplay:10.37,2013-09-15 22:25:00,
2013-09-16 00:30:00,58.5,57.0,29.73,NE,45,1.2,0.0,95,0.00,CLR,BKN,0.00,WeatherDisplay:10.37,2013-09-15 22:30:00,
2013-09-16 00:35:00,58.5,57.0,29.73,SE,135,1.2,0.0,95,0.00,CLR,BKN,0.00,WeatherDisplay:10.37,2013-09-15 22:35:00,
2013-09-16 00:40:00,58.3,56.9,29.72,SE,135,1.2,0.0,95,0.00,CLR,BKN,0.00,WeatherDisplay:10.37,2013-09-15 22:40:00,
2013-09-16 00:45:00,58.1,56.7,29.73,SE,135,0.0,0.0,95,0.00,CLR,BKN,0.00,WeatherDisplay:10.37,2013-09-15 22:45:00,
2013-09-16 00:50:00,57.9,56.5,29.73,NW,315,0.0,0.0,95,0.00,CLR,BKN,0.00,WeatherDisplay:10.37,2013-09-15 22:50:00,
2013-09-16 00:55:00,57.6,56.1,29.73,East,90,2.3,2.3,95,0.00,CLR,BKN,0.00,WeatherDisplay:10.37,2013-09-15 22:55:00,
2013-09-16 03:39:00,54.0,53.1,29.70,East,90,2.3,0.0,97,0.00,CLR,BKN,0.00,WeatherDisplay:10.37,2013-09-16 01:39:00,
2013-09-16 03:44:00,54.0,53.1,29.69,East,90,0.0,0.0,97,0.00,CLR,BKN,0.00,WeatherDisplay:10.37,2013-09-16 01:44:00,
2013-09-16 03:49:00,53.8,52.9,29.70,East,90,1.6,1.6,97,0.00,CLR,BKN,0.00,WeatherDisplay:10.37,2013-09-16 01:49:00,
2013-09-16 03:54:00,53.8,52.9,29.69,East,90,2.3,2.3,97,0.00,CLR,BKN,0.00,WeatherDisplay:10.37,2013-09-16 01:54:00,
2013-09-16 03:59:00,53.6,52.8,29.69,SE,135,1.6,1.6,97,0.00,CLR,BKN,0.00,WeatherDisplay:10.37,2013-09-16 01:59:00,
2013-09-16 04:04:00,53.6,52.8,29.69,SE,135,2.3,2.3,97,0.00,CLR,BKN,0.00,WeatherDisplay:10.37,2013-09-16 02:04:00,
2013-09-16 04:09:00,53.4,52.9,29.69,East,90,2.3,2.3,98,0.00,CLR,BKN,0.00,WeatherDisplay:10.37,2013-09-16 02:09:00,
2013-09-16 04:14:00,53.4,52.9,29.69,SE,135,1.6,1.6,98,0.00,CLR,BKN,0.00,WeatherDisplay:10.37,2013-09-16 02:14:00,
2013-09-16 04:19:00,53.2,52.7,29.69,East,90,1.6,1.6,98,0.00,CLR,BKN,0.00,WeatherDisplay:10.37,2013-09-16 02:19:00,
2013-09-16 04:24:00,53.1,52.5,29.69,SE,135,1.6,0.0,98,0.00,CLR,BKN,0.00,WeatherDisplay:10.37,2013-09-16 02:24:00,
2013-09-16 04:29:00,53.1,52.5,29.69,SE,135,1.2,0.0,98,0.00,CLR,BKN,0.00,WeatherDisplay:10.37,2013-09-16 02:29:00,
2013-09-16 04:34:00,52.9,52.3,29.69,SE,135,1.2,0.0,98,0.00,CLR,BKN,0.00,WeatherDisplay:10.37,2013-09-16 02:34:00,
2013-09-16 04:39:00,52.9,52.3,29.68,NW,315,2.2,2.2,98,0.00,CLR,BKN,0.00,WeatherDisplay:10.37,2013-09-16 02:39:00,
2013-09-16 04:44:00,52.9,52.3,29.69,NW,315,1.6,1.6,98,0.00,CLR,BKN,0.00,WeatherDisplay:10.37,2013-09-16 02:44:00,
2013-09-16 04:49:00,52.9,52.3,29.69,West,270,2.3,2.3,98,0.00,CLR,BKN,0.00,WeatherDisplay:10.37,2013-09-16 02:49:00,
2013-09-16 04:54:00,53.1,52.5,29.69,South,180,1.2,1.2,98,0.00,CLR,BKN,0.00,WeatherDisplay:10.37,2013-09-16 02:54:00,
2013-09-16 04:59:00,53.1,52.5,29.69,West,270,1.6,1.6,98,0.00,CLR,BKN,0.00,WeatherDisplay:10.37,2013-09-16 02:59:00,
2013-09-16 05:04:00,53.1,52.5,29.69,West,270,1.2,0.0,98,0.00,CLR,BKN,0.00,WeatherDisplay:10.37,2013-09-16 03:04:00,
2013-09-16 05:09:00,53.1,52.5,29.69,West,270,0.0,0.0,98,0.00,CLR,BKN,0.00,WeatherDisplay:10.37,2013-09-16 03:09:00,
2013-09-16 05:14:00,53.1,52.5,29.69,West,270,0.7,0.0,98,0.00,CLR,BKN,0.00,WeatherDisplay:10.37,2013-09-16 03:14:00,
2013-09-16 05:19:00,53.1,52.5,29.68,NE,45,2.3,2.3,98,0.00,CLR,BKN,0.00,WeatherDisplay:10.37,2013-09-16 03:19:00,
2013-09-16 05:24:00,52.9,52.3,29.68,NE,45,1.2,0.0,98,0.00,CLR,BKN,0.00,WeatherDisplay:10.37,2013-09-16 03:24:00,
2013-09-16 05:29:00,52.9,52.3,29.68,NE,45,1.6,1.6,98,0.00,CLR,BKN,0.00,WeatherDisplay:10.37,2013-09-16 03:29:00,
2013-09-16 05:34:00,52.9,52.3,29.68,North,0,1.6,1.6,98,0.00,CLR,BKN,0.00,WeatherDisplay:10.37,2013-09-16 03:34:00,
2013-09-16 05:39:00,52.9,52.3,29.68,North,0,0.0,0.0,98,0.00,CLR,BKN,0.00,WeatherDisplay:10.37,2013-09-16 03:39:00,
2013-09-16 05:44:00,53.1,52.5,29.68,North,0,2.3,0.0,98,0.00,CLR,BKN,0.00,WeatherDisplay:10.37,2013-09-16 03:44:00,
2013-09-16 05:49:00,53.1,52.5,29.69,North,0,0.0,0.0,98,0.00,CLR,BKN,0.00,WeatherDisplay:10.37,2013-09-16 03:49:00,
2013-09-16 05:54:00,53.1,52.5,29.68,NE,45,0.7,0.0,98,0.00,CLR,BKN,0.00,WeatherDisplay:10.37,2013-09-16 03:54:00,
2013-09-16 05:59:00,53.1,52.5,29.69,NE,45,1.6,1.6,98,0.00,CLR,BKN,0.00,WeatherDisplay:10.37,2013-09-16 03:59:00,
2013-09-16 06:01:00,53.1,52.5,29.68,NE,45,1.6,1.6,98,0.00,CLR,BKN,0.00,WeatherDisplay:10.37,2013-09-16 04:01:00,
2013-09-16 06:02:00,53.1,52.5,29.69,NE,45,1.6,1.6,98,0.00,CLR,BKN,0.00,WeatherDisplay:10.37,2013-09-16 04:02:00,
2013-09-16 06:03:00,53.1,52.5,29.68,NE,45,1.6,1.6,98,0.00,CLR,BKN,0.00,WeatherDisplay:10.37,2013-09-16 04:03:00,
2013-09-16 06:05:00,53.1,52.5,29.68,NE,45,1.0,2.0,98,0.00,CLR,BKN,0.00,WeatherDisplay:10.37,2013-09-16 04:05:00,
2013-09-16 06:10:00,53.1,52.5,29.68,NE,50,1.0,2.0,98,0.00,CLR,BKN,0.00,WeatherDisplay:10.37,2013-09-16 04:10:00,
2013-09-16 06:15:00,53.1,52.5,29.68,ESE,110,0.0,2.0,98,0.00,CLR,BKN,0.00,WeatherDisplay:10.37,2013-09-16 04:15:00,
2013-09-16 06:18:00,53.1,52.5,29.68,SE,135,1.2,0.0,98,0.00,CLR,BKN,0.00,WeatherDisplay:10.37,2013-09-16 04:18:00,
2013-09-16 06:23:00,53.1,52.5,29.68,SE,135,0.0,0.0,98,0.00,CLR,BKN,0.00,WeatherDisplay:10.37,2013-09-16 04:23:00,
2013-09-16 06:28:00,53.1,52.5,29.69,SE,135,0.0,0.0,98,0.00,CLR,BKN,0.00,WeatherDisplay:10.37,2013-09-16 04:28:00,
2013-09-16 06:33:00,53.2,52.7,29.69,SE,135,1.6,1.6,98,0.00,CLR,BKN,0.00,WeatherDisplay:10.37,2013-09-16 04:33:00,
2013-09-16 06:38:00,53.2,52.7,29.69,East,90,1.2,0.0,98,0.00,CLR,BKN,0.00,WeatherDisplay:10.37,2013-09-16 04:38:00,
2013-09-16 06:43:00,53.2,52.7,29.69,SE,135,1.2,0.0,98,0.00,CLR,BKN,0.00,WeatherDisplay:10.37,2013-09-16 04:43:00,
2013-09-16 06:48:00,53.2,52.7,29.68,North,0,1.6,0.0,98,0.00,CLR,BKN,0.00,WeatherDisplay:10.37,2013-09-16 04:48:00,
2013-09-16 06:53:00,53.2,52.7,29.69,North,0,1.6,1.6,98,0.00,CLR,BKN,0.00,WeatherDisplay:10.37,2013-09-16 04:53:00,
2013-09-16 06:58:00,53.2,52.7,29.69,North,0,3.1,3.1,98,0.00,CLR,BKN,0.00,WeatherDisplay:10.37,2013-09-16 04:58:00,
2013-09-16 07:03:00,53.4,52.9,29.69,NW,315,3.5,3.5,98,0.00,CLR,BKN,0.00,WeatherDisplay:10.37,2013-09-16 05:03:00,
2013-09-16 07:08:00,53.6,52.8,29.69,NW,315,3.5,3.5,97,0.00,CLR,BKN,0.00,WeatherDisplay:10.37,2013-09-16 05:08:00,
2013-09-16 07:13:00,53.8,52.9,29.69,SE,135,0.7,0.0,97,0.00,CLR,BKN,0.00,WeatherDisplay:10.37,2013-09-16 05:13:00,
2013-09-16 07:18:00,54.0,53.1,29.70,East,90,2.2,2.2,97,0.00,CLR,BKN,0.00,WeatherDisplay:10.37,2013-09-16 05:18:00,
2013-09-16 07:23:00,54.0,53.1,29.69,SE,135,2.3,2.3,97,0.00,CLR,BKN,0.00,WeatherDisplay:10.37,2013-09-16 05:23:00,
2013-09-16 07:28:00,54.0,53.1,29.69,SE,135,2.3,0.0,97,0.00,CLR,BKN,0.00,WeatherDisplay:10.37,2013-09-16 05:28:00,
2013-09-16 07:33:00,54.0,53.1,29.70,SE,135,0.0,0.0,97,0.00,CLR,BKN,0.00,WeatherDisplay:10.37,2013-09-16 05:33:00,
2013-09-16 07:38:00,54.1,53.3,29.69,SE,135,2.2,2.2,97,0.00,CLR,BKN,0.00,WeatherDisplay:10.37,2013-09-16 05:38:00,
2013-09-16 07:43:00,54.3,53.5,29.70,North,0,1.2,0.0,97,0.00,CLR,BKN,0.00,WeatherDisplay:10.37,2013-09-16 05:43:00,
2013-09-16 07:48:00,54.3,53.5,29.70,North,0,1.6,1.6,97,0.00,CLR,BKN,0.00,WeatherDisplay:10.37,2013-09-16 05:48:00,
2013-09-16 07:53:00,54.5,53.7,29.70,North,0,1.2,0.0,97,0.00,CLR,BKN,0.00,WeatherDisplay:10.37,2013-09-16 05:53:00,
2013-09-16 07:58:00,54.7,53.8,29.69,NE,45,3.5,3.5,97,0.00,CLR,BKN,0.00,WeatherDisplay:10.37,2013-09-16 05:58:00,
2013-09-16 08:03:00,54.9,54.0,29.69,NE,45,1.6,0.0,97,0.00,CLR,BKN,0.00,WeatherDisplay:10.37,2013-09-16 06:03:00,
2013-09-16 08:08:00,55.2,54.4,29.69,NE,45,3.5,3.5,97,0.00,CLR,BKN,0.00,WeatherDisplay:10.37,2013-09-16 06:08:00,
2013-09-16 08:13:00,55.4,55.1,29.69,North,0,3.5,0.0,99,0.00,CLR,BKN,0.00,WeatherDisplay:10.37,2013-09-16 06:13:00,
2013-09-16 08:18:00,55.6,55.3,29.69,NE,45,3.5,3.5,99,0.00,CLR,BKN,0.00,WeatherDisplay:10.37,2013-09-16 06:18:00,
2013-09-16 08:23:00,55.9,55.7,29.69,North,0,2.3,2.3,99,0.00,CLR,BKN,0.00,WeatherDisplay:10.37,2013-09-16 06:23:00,
2013-09-16 08:28:00,56.1,55.8,29.69,NE,45,2.3,2.3,99,0.00,CLR,BKN,0.00,WeatherDisplay:10.37,2013-09-16 06:28:00,
2013-09-16 08:33:00,56.3,56.0,29.69,North,0,3.5,3.5,99,0.00,CLR,BKN,0.00,WeatherDisplay:10.37,2013-09-16 06:33:00,
2013-09-16 08:38:00,56.5,56.2,29.69,North,0,2.3,0.0,99,0.00,CLR,BKN,0.00,WeatherDisplay:10.37,2013-09-16 06:38:00,
2013-09-16 08:43:00,56.5,56.2,29.70,SE,135,2.3,2.3,99,0.00,CLR,BKN,0.00,WeatherDisplay:10.37,2013-09-16 06:43:00,
2013-09-16 08:48:00,56.8,56.6,29.69,South,180,1.6,1.6,99,0.00,CLR,BKN,0.00,WeatherDisplay:10.37,2013-09-16 06:48:00,
2013-09-16 08:53:00,57.2,56.9,29.69,West,270,1.6,1.6,99,0.00,CLR,BKN,0.00,WeatherDisplay:10.37,2013-09-16 06:53:00,
2013-09-16 08:58:00,57.6,57.3,29.69,WNW,292,3.8,3.8,99,0.00,CLR,BKN,0.00,WeatherDisplay:10.37,2013-09-16 06:58:00,
2013-09-16 09:03:00,57.9,57.6,29.70,North,0,4.6,4.6,99,0.00,CLR,BKN,0.00,WeatherDisplay:10.37,2013-09-16 07:03:00,
2013-09-16 09:08:00,58.5,58.2,29.69,North,0,3.5,3.5,99,0.00,CLR,BKN,0.00,WeatherDisplay:10.37,2013-09-16 07:08:00,
2013-09-16 09:13:00,58.8,58.5,29.69,West,270,2.2,2.2,99,0.00,CLR,BKN,0.00,WeatherDisplay:10.37,2013-09-16 07:13:00,
2013-09-16 09:18:00,59.2,58.9,29.70,West,270,3.8,3.8,99,0.00,CLR,BKN,0.00,WeatherDisplay:10.37,2013-09-16 07:18:00,
2013-09-16 09:23:00,59.5,59.3,29.69,NW,315,3.5,3.5,99,0.00,CLR,BKN,0.00,WeatherDisplay:10.37,2013-09-16 07:23:00,
2013-09-16 09:28:00,59.9,59.6,29.70,North,0,3.5,3.5,99,0.00,CLR,BKN,0.00,WeatherDisplay:10.37,2013-09-16 07:28:00,
2013-09-16 09:33:00,60.4,60.2,29.69,North,0,3.5,3.5,99,0.00,CLR,BKN,0.00,WeatherDisplay:10.37,2013-09-16 07:33:00,
2013-09-16 09:38:00,61.0,60.4,29.69,NW,315,4.6,4.6,98,0.00,CLR,BKN,0.00,WeatherDisplay:10.37,2013-09-16 07:38:00,
2013-09-16 09:43:00,61.3,60.8,29.70,NE,45,4.5,4.5,98,0.00,CLR,BKN,0.00,WeatherDisplay:10.37,2013-09-16 07:43:00,
2013-09-16 09:48:00,61.9,61.3,29.69,East,90,5.8,5.8,98,0.00,CLR,BKN,0.00,WeatherDisplay:10.37,2013-09-16 07:48:00,
2013-09-16 09:53:00,62.2,61.4,29.69,SE,135,2.3,0.0,97,0.00,CLR,BKN,0.00,WeatherDisplay:10.37,2013-09-16 07:53:00,
2013-09-16 09:58:00,62.8,61.3,29.69,ENE,68,3.5,3.5,95,0.00,CLR,BKN,0.00,WeatherDisplay:10.37,2013-09-16 07:58:00,
2013-09-16 10:03:00,63.1,61.7,29.69,NW,315,2.3,2.3,95,0.00,CLR,BKN,0.00,WeatherDisplay:10.37,2013-09-16 08:03:00,
2013-09-16 10:08:00,63.9,61.8,29.69,West,270,2.3,0.0,93,0.00,CLR,BKN,0.00,WeatherDisplay:10.37,2013-09-16 08:08:00,
2013-09-16 10:13:00,64.2,61.5,29.69,WNW,292,4.5,4.5,91,0.00,CLR,BKN,0.00,WeatherDisplay:10.37,2013-09-16 08:13:00,
2013-09-16 10:18:00,64.8,62.4,29.69,South,180,3.5,3.5,92,0.00,CLR,BKN,0.00,WeatherDisplay:10.37,2013-09-16 08:18:00,
2013-09-16 10:23:00,65.1,62.4,29.69,NW,315,3.5,3.5,91,0.00,CLR,BKN,0.00,WeatherDisplay:10.37,2013-09-16 08:23:00,
2013-09-16 10:28:00,65.5,62.5,29.69,North,0,3.8,3.8,90,0.00,CLR,BKN,0.00,WeatherDisplay:10.37,2013-09-16 08:28:00,
2013-09-16 10:33:00,66.0,62.7,29.69,West,270,3.5,3.5,89,0.00,CLR,BKN,0.00,WeatherDisplay:10.37,2013-09-16 08:33:00,
2013-09-16 10:38:00,66.2,62.2,29.69,NW,315,4.6,4.6,87,0.00,CLR,BKN,0.00,WeatherDisplay:10.37,2013-09-16 08:38:00,
2013-09-16 10:43:00,66.7,62.4,29.69,NNW,338,5.8,5.8,86,0.00,CLR,BKN,0.00,WeatherDisplay:10.37,2013-09-16 08:43:00,
2013-09-16 10:48:00,67.1,62.4,29.68,NW,315,5.8,5.8,85,0.00,SCT,BKN,0.00,WeatherDisplay:10.37,2013-09-16 08:48:00,
2013-09-16 10:53:00,67.5,62.5,29.68,North,0,4.6,4.6,84,0.00,SCT,BKN,0.00,WeatherDisplay:10.37,2013-09-16 08:53:00,
2013-09-16 10:58:00,68.0,62.3,29.68,West,270,5.8,5.8,82,0.00,SCT,BKN,0.00,WeatherDisplay:10.37,2013-09-16 08:58:00,
2013-09-16 11:03:00,68.7,62.3,29.68,West,270,6.9,6.9,80,0.00,SCT,BKN,0.00,WeatherDisplay:10.37,2013-09-16 09:03:00,
2013-09-16 11:08:00,68.9,62.1,29.67,East,90,3.5,3.5,79,0.00,SCT,BKN,0.00,WeatherDisplay:10.37,2013-09-16 09:08:00,
2013-09-16 11:13:00,69.4,61.9,29.68,NE,45,6.0,6.0,77,0.00,SCT,BKN,0.00,WeatherDisplay:10.37,2013-09-16 09:13:00,
2013-09-16 11:18:00,69.8,61.1,29.67,NW,315,3.5,3.5,74,0.00,SCT,BKN,0.00,WeatherDisplay:10.37,2013-09-16 09:18:00,
2013-09-16 11:23:00,69.8,61.1,29.68,NW,315,5.8,5.8,74,0.00,SCT,BKN,0.00,WeatherDisplay:10.37,2013-09-16 09:23:00,
2013-09-16 11:28:00,70.0,61.3,29.68,NW,315,5.8,5.8,74,0.00,SCT,BKN,0.00,WeatherDisplay:10.37,2013-09-16 09:28:00,
2013-09-16 11:33:00,70.2,61.1,29.68,NW,315,4.5,4.5,73,0.00,SCT,BKN,0.00,WeatherDisplay:10.37,2013-09-16 09:33:00,
2013-09-16 11:38:00,70.5,61.1,29.68,West,270,3.5,3.5,72,0.00,SCT,BKN,0.00,WeatherDisplay:10.37,2013-09-16 09:38:00,
2013-09-16 11:43:00,70.7,60.8,29.68,West,270,3.8,3.8,71,0.00,SCT,BKN,0.00,WeatherDisplay:10.37,2013-09-16 09:43:00,
2013-09-16 11:48:00,71.1,60.8,29.68,NW,315,4.6,4.6,70,0.00,SCT,BKN,0.00,WeatherDisplay:10.37,2013-09-16 09:48:00,
2013-09-16 11:53:00,71.2,60.5,29.68,North,0,3.8,3.8,69,0.00,SCT,BKN,0.00,WeatherDisplay:10.37,2013-09-16 09:53:00,
2013-09-16 11:58:00,71.4,60.3,29.68,NW,315,5.8,5.8,68,0.00,SCT,BKN,0.00,WeatherDisplay:10.37,2013-09-16 09:58:00,
2013-09-16 12:03:00,71.2,59.7,29.68,NW,315,4.6,4.6,67,0.00,SCT,BKN,0.00,WeatherDisplay:10.37,2013-09-16 10:03:00,
2013-09-16 12:08:00,71.1,60.4,29.68,East,90,4.6,4.6,69,0.00,SCT,BKN,0.00,WeatherDisplay:10.37,2013-09-16 10:08:00,
2013-09-16 12:13:00,71.2,60.5,29.67,West,270,4.6,4.6,69,0.00,SCT,BKN,0.00,WeatherDisplay:10.37,2013-09-16 10:13:00,
2013-09-16 12:18:00,71.4,61.1,29.68,West,270,3.5,3.5,70,0.00,SCT,BKN,0.00,WeatherDisplay:10.37,2013-09-16 10:18:00,
2013-09-16 12:23:00,71.2,61.0,29.67,NW,315,4.6,4.6,70,0.00,SCT,BKN,0.00,WeatherDisplay:10.37,2013-09-16 10:23:00,
2013-09-16 12:28:00,71.2,61.0,29.67,NW,315,4.6,4.6,70,0.00,SCT,BKN,0.00,WeatherDisplay:10.37,2013-09-16 10:28:00,
2013-09-16 12:33:00,71.2,61.0,29.67,NW,315,5.8,5.8,70,0.00,SCT,BKN,0.00,WeatherDisplay:10.37,2013-09-16 10:33:00,
2013-09-16 12:38:00,71.2,61.0,29.67,West,270,5.8,5.8,70,0.00,SCT,BKN,0.00,WeatherDisplay:10.37,2013-09-16 10:38:00,
2013-09-16 12:43:00,71.2,61.0,29.67,North,0,5.8,5.8,70,0.00,SCT,BKN,0.00,WeatherDisplay:10.37,2013-09-16 10:43:00,
2013-09-16 12:48:00,71.6,60.9,29.67,NW,315,3.8,3.8,69,0.00,SCT,BKN,0.00,WeatherDisplay:10.37,2013-09-16 10:48:00,
2013-09-16 12:53:00,71.8,60.6,29.67,North,0,5.8,5.8,68,0.00,SCT,BKN,0.00,WeatherDisplay:10.37,2013-09-16 10:53:00,
2013-09-16 12:58:00,72.1,61.0,29.67,North,0,6.0,6.0,68,0.00,SCT,BKN,0.00,WeatherDisplay:10.37,2013-09-16 10:58:00,
2013-09-16 13:03:00,72.1,61.0,29.67,NW,315,4.6,4.6,68,0.00,SCT,BKN,0.00,WeatherDisplay:10.37,2013-09-16 11:03:00,
2013-09-16 13:08:00,71.8,60.6,29.67,South,180,5.8,5.8,68,0.00,SCT,BKN,0.00,WeatherDisplay:10.37,2013-09-16 11:08:00,
2013-09-16 13:13:00,71.6,60.9,29.67,NW,315,3.5,3.5,69,0.00,SCT,BKN,0.00,WeatherDisplay:10.37,2013-09-16 11:13:00,
2013-09-16 13:18:00,71.4,61.1,29.67,NE,45,3.5,3.5,70,0.00,FEW,BKN,0.00,WeatherDisplay:10.37,2013-09-16 11:18:00,
2013-09-16 13:23:00,71.8,61.1,29.67,West,270,4.6,4.6,69,0.00,FEW,BKN,0.00,WeatherDisplay:10.37,2013-09-16 11:23:00,
2013-09-16 13:28:00,72.0,60.8,29.67,NW,315,4.6,4.6,68,0.00,FEW,BKN,0.00,WeatherDisplay:10.37,2013-09-16 11:28:00,
2013-09-16 13:33:00,72.3,61.2,29.67,North,0,5.8,5.8,68,0.00,FEW,BKN,0.00,WeatherDisplay:10.37,2013-09-16 11:33:00,
2013-09-16 13:38:00,72.5,60.5,29.66,West,270,5.8,5.8,66,0.00,FEW,BKN,0.00,WeatherDisplay:10.37,2013-09-16 11:38:00,
2013-09-16 13:43:00,72.5,60.5,29.67,SW,225,4.6,4.6,66,0.00,FEW,BKN,0.00,WeatherDisplay:10.37,2013-09-16 11:43:00,
2013-09-16 13:48:00,72.3,60.7,29.66,WNW,292,5.8,5.8,67,0.00,SCT,BKN,0.00,WeatherDisplay:10.37,2013-09-16 11:48:00,
2013-09-16 13:53:00,72.5,60.5,29.67,NW,315,5.8,5.8,66,0.00,SCT,BKN,0.00,WeatherDisplay:10.37,2013-09-16 11:53:00,
2013-09-16 13:58:00,72.3,60.3,29.66,SSE,158,2.3,2.3,66,0.00,SCT,BKN,0.00,WeatherDisplay:10.37,2013-09-16 11:58:00,
2013-09-16 14:03:00,72.1,60.2,29.66,West,270,3.5,3.5,66,0.00,SCT,BKN,0.00,WeatherDisplay:10.37,2013-09-16 12:03:00,
2013-09-16 14:08:00,72.1,60.2,29.66,West,270,4.6,4.6,66,0.00,SCT,BKN,0.00,WeatherDisplay:10.37,2013-09-16 12:08:00,
2013-09-16 14:13:00,72.3,60.3,29.66,NW,315,4.6,4.6,66,0.00,SCT,BKN,0.00,WeatherDisplay:10.37,2013-09-16 12:13:00,
2013-09-16 14:18:00,72.7,60.2,29.65,NW,315,4.6,4.6,65,0.00,SCT,BKN,0.00,WeatherDisplay:10.37,2013-09-16 12:18:00,
2013-09-16 14:23:00,72.9,60.4,29.65,West,270,4.6,4.6,65,0.00,SCT,BKN,0.00,WeatherDisplay:10.37,2013-09-16 12:23:00,
2013-09-16 14:28:00,72.9,60.4,29.66,North,0,6.0,6.0,65,0.00,SCT,BKN,0.00,WeatherDisplay:10.37,2013-09-16 12:28:00,
2013-09-16 14:33:00,73.2,60.7,29.65,NE,45,5.8,5.8,65,0.00,SCT,BKN,0.00,WeatherDisplay:10.37,2013-09-16 12:33:00,
2013-09-16 14:38:00,73.4,60.9,29.65,SW,225,5.8,5.8,65,0.00,SCT,BKN,0.00,WeatherDisplay:10.37,2013-09-16 12:38:00,
2013-09-16 14:43:00,73.6,60.6,29.64,NE,45,5.8,5.8,64,0.00,SCT,BKN,0.00,WeatherDisplay:10.37,2013-09-16 12:43:00,
2013-09-16 14:48:00,73.8,60.8,29.65,NW,315,5.8,5.8,64,0.00,FEW,BKN,0.00,WeatherDisplay:10.37,2013-09-16 12:48:00,
2013-09-16 14:53:00,73.8,60.8,29.64,West,270,5.8,5.8,64,0.00,FEW,BKN,0.00,WeatherDisplay:10.37,2013-09-16 12:53:00,
2013-09-16 14:58:00,73.6,60.6,29.65,NW,315,5.4,5.4,64,0.00,FEW,BKN,0.00,WeatherDisplay:10.37,2013-09-16 12:58:00,
2013-09-16 15:03:00,73.8,60.8,29.64,SW,225,5.8,5.8,64,0.00,FEW,BKN,0.00,WeatherDisplay:10.37,2013-09-16 13:03:00,
2013-09-16 15:08:00,73.8,60.8,29.64,NW,315,4.6,4.6,64,0.00,FEW,BKN,0.00,WeatherDisplay:10.37,2013-09-16 13:08:00,
2013-09-16 15:13:00,74.1,61.2,29.63,WNW,292,8.1,8.1,64,0.00,FEW,BKN,0.00,WeatherDisplay:10.37,2013-09-16 13:13:00,
2013-09-16 15:18:00,73.9,60.5,29.63,NW,315,5.8,5.8,63,0.00,SCT,BKN,0.00,WeatherDisplay:10.37,2013-09-16 13:18:00,
2013-09-16 15:23:00,73.9,60.5,29.64,NW,315,4.6,4.6,63,0.00,SCT,BKN,0.00,WeatherDisplay:10.37,2013-09-16 13:23:00,
2013-09-16 15:28:00,73.9,60.5,29.63,NW,315,5.8,5.8,63,0.00,SCT,BKN,0.00,WeatherDisplay:10.37,2013-09-16 13:28:00,
2013-09-16 15:33:00,74.1,60.7,29.63,NE,45,4.6,4.6,63,0.00,SCT,BKN,0.00,WeatherDisplay:10.37,2013-09-16 13:33:00,
2013-09-16 15:38:00,74.1,60.3,29.62,NW,315,4.6,4.6,62,0.00,SCT,BKN,0.00,WeatherDisplay:10.37,2013-09-16 13:38:00,
2013-09-16 15:43:00,73.9,60.5,29.63,North,0,3.5,3.5,63,0.00,SCT,BKN,0.00,WeatherDisplay:10.37,2013-09-16 13:43:00,
2013-09-16 15:48:00,73.8,60.4,29.63,NW,315,3.5,3.5,63,0.00,SCT,BKN,0.00,WeatherDisplay:10.37,2013-09-16 13:48:00,
2013-09-16 15:53:00,73.8,60.4,29.62,SSW,202,2.3,2.3,63,0.00,SCT,BKN,0.00,WeatherDisplay:10.37,2013-09-16 13:53:00,
2013-09-16 15:58:00,73.8,59.9,29.62,West,270,1.6,1.6,62,0.00,SCT,BKN,0.00,WeatherDisplay:10.37,2013-09-16 13:58:00,
2013-09-16 16:03:00,73.8,59.9,29.62,West,270,1.2,0.0,62,0.00,SCT,BKN,0.00,WeatherDisplay:10.37,2013-09-16 14:03:00,
2013-09-16 16:08:00,74.3,60.4,29.62,West,270,2.2,2.2,62,0.00,SCT,BKN,0.00,WeatherDisplay:10.37,2013-09-16 14:08:00,
2013-09-16 16:13:00,74.1,59.8,29.62,North,0,3.8,3.8,61,0.00,SCT,BKN,0.00,WeatherDisplay:10.37,2013-09-16 14:13:00,
2013-09-16 16:18:00,74.1,60.3,29.62,SE,135,3.5,3.5,62,0.00,SCT,BKN,0.00,WeatherDisplay:10.37,2013-09-16 14:18:00,
2013-09-16 16:23:00,73.9,60.1,29.62,East,90,1.6,1.6,62,0.00,SCT,BKN,0.00,WeatherDisplay:10.37,2013-09-16 14:23:00,
2013-09-16 16:28:00,73.8,59.9,29.62,East,90,1.6,1.6,62,0.00,SCT,BKN,0.00,WeatherDisplay:10.37,2013-09-16 14:28:00,
2013-09-16 16:33:00,73.8,59.9,29.61,East,90,2.3,2.3,62,0.00,SCT,BKN,0.00,WeatherDisplay:10.37,2013-09-16 14:33:00,
2013-09-16 16:38:00,73.6,59.8,29.61,NW,315,1.6,1.6,62,0.00,SCT,BKN,0.00,WeatherDisplay:10.37,2013-09-16 14:38:00,
2013-09-16 16:43:00,73.4,59.1,29.61,North,0,3.5,3.5,61,0.00,SCT,BKN,0.00,WeatherDisplay:10.37,2013-09-16 14:43:00,
2013-09-16 16:48:00,73.2,59.0,29.62,SW,225,5.8,5.8,61,0.00,SCT,BKN,0.00,WeatherDisplay:10.37,2013-09-16 14:48:00,
2013-09-16 16:53:00,73.6,59.8,29.61,West,270,3.8,3.8,62,0.00,SCT,BKN,0.00,WeatherDisplay:10.37,2013-09-16 14:53:00,
2013-09-16 16:58:00,73.9,60.1,29.61,NW,315,5.8,5.8,62,0.00,SCT,BKN,0.00,WeatherDisplay:10.37,2013-09-16 14:58:00,
2013-09-16 17:03:00,73.8,59.9,29.62,NW,315,3.5,3.5,62,0.00,SCT,BKN,0.00,WeatherDisplay:10.37,2013-09-16 15:03:00,
2013-09-16 17:08:00,73.4,59.6,29.62,NW,315,5.8,5.8,62,0.00,SCT,BKN,0.00,WeatherDisplay:10.37,2013-09-16 15:08:00,
2013-09-16 17:13:00,73.0,58.8,29.61,West,270,4.6,4.6,61,0.00,SCT,BKN,0.00,WeatherDisplay:10.37,2013-09-16 15:13:00,
2013-09-16 17:18:00,73.0,58.8,29.62,West,270,4.6,4.6,61,0.00,SCT,BKN,0.00,WeatherDisplay:10.37,2013-09-16 15:18:00,
2013-09-16 17:23:00,73.0,58.8,29.61,NW,315,5.8,5.8,61,0.00,SCT,BKN,0.00,WeatherDisplay:10.37,2013-09-16 15:23:00,
2013-09-16 17:28:00,72.9,58.6,29.61,NW,315,4.6,4.6,61,0.00,SCT,BKN,0.00,WeatherDisplay:10.37,2013-09-16 15:28:00,
2013-09-16 17:33:00,72.9,58.6,29.61,North,0,3.5,3.5,61,0.00,SCT,BKN,0.00,WeatherDisplay:10.37,2013-09-16 15:33:00,
2013-09-16 17:38:00,72.7,58.9,29.61,NW,315,4.6,4.6,62,0.00,SCT,BKN,0.00,WeatherDisplay:10.37,2013-09-16 15:38:00,
2013-09-16 17:43:00,72.5,58.7,29.61,NW,315,2.3,2.3,62,0.00,SCT,BKN,0.00,WeatherDisplay:10.37,2013-09-16 15:43:00,
2013-09-16 17:48:00,72.1,58.4,29.62,NW,315,3.5,3.5,62,0.00,SCT,BKN,0.00,WeatherDisplay:10.37,2013-09-16 15:48:00,
2013-09-16 17:53:00,72.1,58.8,29.60,NW,315,2.3,2.3,63,0.00,SCT,BKN,0.00,WeatherDisplay:10.37,2013-09-16 15:53:00,
2013-09-16 17:58:00,71.8,58.9,29.60,West,270,3.5,3.5,64,0.00,SCT,BKN,0.00,WeatherDisplay:10.37,2013-09-16 15:58:00,
2013-09-16 18:03:00,71.6,58.8,29.60,NW,315,3.8,3.8,64,0.00,SCT,BKN,0.00,WeatherDisplay:10.37,2013-09-16 16:03:00,
2013-09-16 18:08:00,71.4,59.5,29.61,NW,315,3.5,3.5,66,0.00,SCT,BKN,0.00,WeatherDisplay:10.37,2013-09-16 16:08:00,
2013-09-16 18:13:00,71.1,59.1,29.61,NW,315,3.5,3.5,66,0.00,SCT,BKN,0.00,WeatherDisplay:10.37,2013-09-16 16:13:00,
2013-09-16 18:18:00,70.9,59.4,29.61,NW,315,3.1,3.1,67,0.00,FEW,BKN,0.00,WeatherDisplay:10.37,2013-09-16 16:18:00,
2013-09-16 18:23:00,70.7,59.6,29.60,West,270,2.3,2.3,68,0.00,FEW,BKN,0.00,WeatherDisplay:10.37,2013-09-16 16:23:00,
2013-09-16 18:28:00,70.3,59.3,29.61,NW,315,3.1,3.1,68,0.00,FEW,BKN,0.00,WeatherDisplay:10.37,2013-09-16 16:28:00,
2013-09-16 18:33:00,70.0,59.3,29.61,West,270,3.5,3.5,69,0.00,FEW,BKN,0.00,WeatherDisplay:10.37,2013-09-16 16:33:00,
2013-09-16 18:38:00,69.6,59.4,29.60,West,270,2.3,2.3,70,0.00,FEW,BKN,0.00,WeatherDisplay:10.37,2013-09-16 16:38:00,
2013-09-16 18:43:00,69.3,59.5,29.60,SW,225,1.6,1.6,71,0.00,FEW,BKN,0.00,WeatherDisplay:10.37,2013-09-16 16:43:00,
2013-09-16 18:48:00,68.9,59.5,29.60,SW,225,0.0,0.0,72,0.00,FEW,BKN,0.00,WeatherDisplay:10.37,2013-09-16 16:48:00,
2013-09-16 18:53:00,68.4,59.0,29.60,SW,225,0.0,0.0,72,0.00,FEW,BKN,0.00,WeatherDisplay:10.37,2013-09-16 16:53:00,
2013-09-16 18:58:00,67.8,59.2,29.60,SW,225,0.0,0.0,74,0.00,FEW,BKN,0.00,WeatherDisplay:10.37,2013-09-16 16:58:00,
2013-09-16 19:03:00,67.3,59.1,29.60,East,90,1.2,0.0,75,0.00,FEW,BKN,0.00,WeatherDisplay:10.37,2013-09-16 17:03:00,
2013-09-16 19:08:00,66.7,59.3,29.60,SE,135,1.6,1.6,77,0.00,FEW,BKN,0.00,WeatherDisplay:10.37,2013-09-16 17:08:00,
2013-09-16 19:13:00,66.2,59.1,29.59,SE,135,1.2,0.0,78,0.00,FEW,BKN,0.00,WeatherDisplay:10.37,2013-09-16 17:13:00,
2013-09-16 19:18:00,65.7,59.3,29.60,SE,135,0.0,0.0,80,0.00,CLR,BKN,0.00,WeatherDisplay:10.37,2013-09-16 17:18:00,
2013-09-16 19:23:00,65.3,59.0,29.59,NW,315,1.6,1.6,80,0.00,CLR,BKN,0.00,WeatherDisplay:10.37,2013-09-16 17:23:00,
2013-09-16 19:28:00,64.9,59.0,29.60,NW,315,1.2,0.0,81,0.00,CLR,BKN,0.00,WeatherDisplay:10.37,2013-09-16 17:28:00,
2013-09-16 19:33:00,64.8,59.1,29.60,West,270,1.2,0.0,82,0.00,CLR,BKN,0.00,WeatherDisplay:10.37,2013-09-16 17:33:00,
2013-09-16 19:38:00,64.4,58.8,29.60,West,270,0.0,0.0,82,0.00,CLR,BKN,0.00,WeatherDisplay:10.37,2013-09-16 17:38:00,
2013-09-16 19:43:00,64.0,58.4,29.60,West,270,0.0,0.0,82,0.00,CLR,BKN,0.00,WeatherDisplay:10.37,2013-09-16 17:43:00,
2013-09-16 19:48:00,63.7,58.1,29.60,South,180,1.2,0.0,82,0.00,CLR,BKN,0.00,WeatherDisplay:10.37,2013-09-16 17:48:00,
2013-09-16 19:53:00,63.5,58.2,29.60,South,180,1.6,1.6,83,0.00,CLR,BKN,0.00,WeatherDisplay:10.37,2013-09-16 17:53:00,
2013-09-16 19:58:00,63.3,58.4,29.60,East,90,2.3,2.3,84,0.00,CLR,BKN,0.00,WeatherDisplay:10.37,2013-09-16 17:58:00,
2013-09-16 20:03:00,63.3,58.4,29.60,East,90,2.3,2.3,84,0.00,CLR,BKN,0.00,WeatherDisplay:10.37,2013-09-16 18:03:00,
2013-09-16 20:08:00,63.0,58.0,29.59,East,90,2.3,0.0,84,0.00,CLR,BKN,0.00,WeatherDisplay:10.37,2013-09-16 18:08:00,
2013-09-16 20:13:00,62.6,57.7,29.59,East,90,1.6,1.6,84,0.00,CLR,BKN,0.00,WeatherDisplay:10.37,2013-09-16 18:13:00,
2013-09-16 20:18:00,62.4,57.8,29.59,East,90,1.6,1.6,85,0.00,CLR,BKN,0.00,WeatherDisplay:10.37,2013-09-16 18:18:00,
2013-09-16 20:23:00,62.1,57.5,29.59,East,90,1.2,0.0,85,0.00,CLR,BKN,0.00,WeatherDisplay:10.37,2013-09-16 18:23:00,
2013-09-16 20:28:00,61.9,57.6,29.58,East,90,0.0,0.0,86,0.00,CLR,BKN,0.00,WeatherDisplay:10.37,2013-09-16 18:28:00,
2013-09-16 20:33:00,61.7,57.5,29.58,East,90,1.2,1.2,86,0.00,CLR,BKN,0.00,WeatherDisplay:10.37,2013-09-16 18:33:00,
2013-09-16 20:38:00,61.5,57.6,29.58,SE,135,1.2,0.0,87,0.00,CLR,BKN,0.00,WeatherDisplay:10.37,2013-09-16 18:38:00,
2013-09-16 20:43:00,61.3,57.4,29.58,North,0,0.0,0.0,87,0.00,CLR,BKN,0.00,WeatherDisplay:10.37,2013-09-16 18:43:00,
2013-09-16 20:48:00,61.2,57.3,29.58,NW,315,0.0,0.0,87,0.00,CLR,BKN,0.00,WeatherDisplay:10.37,2013-09-16 18:48:00,
2013-09-16 20:53:00,61.2,57.3,29.58,West,270,2.3,2.3,87,0.00,CLR,BKN,0.00,WeatherDisplay:10.37,2013-09-16 18:53:00,
2013-09-16 20:58:00,61.2,57.6,29.58,NW,315,2.3,2.3,88,0.00,CLR,BKN,0.00,WeatherDisplay:10.37,2013-09-16 18:58:00,
2013-09-16 21:03:00,61.2,57.6,29.58,NW,315,1.2,0.0,88,0.00,CLR,BKN,0.00,WeatherDisplay:10.37,2013-09-16 19:03:00,
2013-09-16 21:08:00,61.0,57.7,29.58,NW,315,0.0,0.0,89,0.00,CLR,BKN,0.00,WeatherDisplay:10.37,2013-09-16 19:08:00,
2013-09-16 21:13:00,60.8,57.5,29.57,NW,315,0.0,0.0,89,0.00,CLR,BKN,0.00,WeatherDisplay:10.37,2013-09-16 19:13:00,
2013-09-16 21:18:00,60.8,57.5,29.57,NW,315,1.6,1.6,89,0.00,CLR,BKN,0.00,WeatherDisplay:10.37,2013-09-16 19:18:00,
2013-09-16 21:23:00,60.8,57.8,29.58,NW,315,1.2,0.0,90,0.00,CLR,BKN,0.00,WeatherDisplay:10.37,2013-09-16 19:23:00,
2013-09-16 21:28:00,60.6,58.0,29.58,North,0,1.6,1.6,91,0.00,CLR,BKN,0.00,WeatherDisplay:10.37,2013-09-16 19:28:00,
2013-09-16 21:33:00,60.6,58.0,29.57,North,0,3.5,3.5,91,0.00,CLR,BKN,0.00,WeatherDisplay:10.37,2013-09-16 19:33:00,
2013-09-16 21:38:00,60.6,58.3,29.57,East,90,1.2,0.0,92,0.00,CLR,BKN,0.00,WeatherDisplay:10.37,2013-09-16 19:38:00,
2013-09-16 21:43:00,60.6,58.3,29.58,NW,315,0.0,0.0,92,0.00,CLR,BKN,0.00,WeatherDisplay:10.37,2013-09-16 19:43:00,
2013-09-16 21:48:00,60.4,58.1,29.57,NW,315,1.2,0.0,92,0.00,CLR,BKN,0.00,WeatherDisplay:10.37,2013-09-16 19:48:00,
2013-09-16 21:53:00,60.3,57.9,29.57,ESE,112,1.6,1.6,92,0.00,CLR,BKN,0.00,WeatherDisplay:10.37,2013-09-16 19:53:00,
2013-09-16 21:58:00,60.3,57.9,29.57,East,90,1.2,0.0,92,0.00,CLR,BKN,0.00,WeatherDisplay:10.37,2013-09-16 19:58:00,
2013-09-16 22:03:00,60.1,57.7,29.57,East,90,1.6,1.6,92,0.00,CLR,BKN,0.00,WeatherDisplay:10.37,2013-09-16 20:03:00,
2013-09-16 22:08:00,59.9,57.6,29.57,East,90,1.2,0.0,92,0.00,CLR,BKN,0.00,WeatherDisplay:10.37,2013-09-16 20:08:00,
2013-09-16 22:13:00,59.9,57.6,29.56,East,90,1.2,0.0,92,0.00,CLR,BKN,0.00,WeatherDisplay:10.37,2013-09-16 20:13:00,
2013-09-16 22:18:00,59.7,57.4,29.56,East,90,0.0,0.0,92,0.00,CLR,BKN,0.00,WeatherDisplay:10.37,2013-09-16 20:18:00,
2013-09-16 22:23:00,59.5,57.2,29.56,East,90,0.0,0.0,92,0.00,CLR,BKN,0.00,WeatherDisplay:10.37,2013-09-16 20:23:00,
2013-09-16 22:28:00,59.5,57.2,29.56,West,270,0.0,0.0,92,0.00,CLR,BKN,0.00,WeatherDisplay:10.37,2013-09-16 20:28:00,
2013-09-16 22:33:00,59.4,57.3,29.56,SE,135,0.0,0.0,93,0.00,CLR,BKN,0.00,WeatherDisplay:10.37,2013-09-16 20:33:00,
2013-09-16 22:38:00,59.4,57.3,29.57,SE,135,0.0,0.0,93,0.00,CLR,BKN,0.00,WeatherDisplay:10.37,2013-09-16 20:38:00,
2013-09-16 22:43:00,59.4,57.3,29.56,SE,135,0.0,0.0,93,0.00,CLR,BKN,0.00,WeatherDisplay:10.37,2013-09-16 20:43:00,
2013-09-16 22:48:00,59.2,57.2,29.56,SE,135,0.0,0.0,93,0.00,CLR,BKN,0.00,WeatherDisplay:10.37,2013-09-16 20:48:00,
2013-09-16 22:53:00,59.2,57.2,29.56,SE,135,0.0,0.0,93,0.00,CLR,BKN,0.00,WeatherDisplay:10.37,2013-09-16 20:53:00,
2013-09-16 22:58:00,59.2,57.2,29.56,SE,135,0.0,0.0,93,0.00,CLR,BKN,0.00,WeatherDisplay:10.37,2013-09-16 20:58:00,
2013-09-16 23:03:00,59.2,57.2,29.56,SE,135,0.0,0.0,93,0.00,CLR,BKN,0.00,WeatherDisplay:10.37,2013-09-16 21:03:00,
2013-09-16 23:08:00,59.4,57.6,29.55,SE,135,0.0,0.0,94,0.00,CLR,BKN,0.00,WeatherDisplay:10.37,2013-09-16 21:08:00,
2013-09-16 23:13:00,59.2,57.5,29.54,SE,135,0.0,0.0,94,0.00,CLR,BKN,0.00,WeatherDisplay:10.37,2013-09-16 21:13:00,
2013-09-16 23:18:00,59.2,57.5,29.54,SE,135,0.0,0.0,94,0.00,CLR,BKN,0.00,WeatherDisplay:10.37,2013-09-16 21:18:00,
2013-09-16 23:23:00,59.2,57.5,29.54,SE,135,0.0,0.0,94,0.00,CLR,BKN,0.00,WeatherDisplay:10.37,2013-09-16 21:23:00,
2013-09-16 23:28:00,59.2,57.5,29.53,SE,135,0.0,0.0,94,0.00,CLR,BKN,0.00,WeatherDisplay:10.37,2013-09-16 21:28:00,
2013-09-16 23:33:00,59.2,57.5,29.53,NE,45,0.0,0.0,94,0.00,CLR,BKN,0.00,WeatherDisplay:10.37,2013-09-16 21:33:00,
2013-09-16 23:38:00,59.2,57.5,29.53,NE,45,1.6,1.6,94,0.00,CLR,BKN,0.00,WeatherDisplay:10.37,2013-09-16 21:38:00,
2013-09-16 23:43:00,59.2,57.5,29.52,NE,45,1.2,0.0,94,0.00,CLR,BKN,0.00,WeatherDisplay:10.37,2013-09-16 21:43:00,
2013-09-16 23:48:00,59.0,57.3,29.52,NE,45,1.2,0.0,94,0.00,CLR,BKN,0.00,WeatherDisplay:10.37,2013-09-16 21:48:00,
2013-09-16 23:53:00,59.0,57.3,29.52,NE,45,0.0,0.0,94,0.00,CLR,BKN,0.00,WeatherDisplay:10.37,2013-09-16 21:53:00,
2013-09-16 23:58:00,59.0,57.3,29.52,NW,315,1.6,1.6,94,0.00,CLR,BKN,0.00,WeatherDisplay:10.37,2013-09-16 21:58:00,